Regional Weather Roundup
Issued by NWS

Home | Current Version | Previous Version | Graphics & Text | Print | Product List | Glossary On
Versions: 1 2 3 4 5 6 7 8 9 10 11 12 13 14 15 16 17 18 19 20 21 22 23 24 25 26 27 28 29 30 31 32 33 34 35 36 37 38 39 40 41 42 43 44 45 46 47 48 49 50
000
ASUS43 KLOT 200906
RWRIL

ILLINOIS REGIONAL WEATHER ROUNDUP
NATIONAL WEATHER SERVICE CHICAGO/ROMEOVILLE IL
400 AM CDT SAT SEP 20 2014

NOTE: "FAIR" INDICATES FEW OR NO CLOUDS BELOW 12,000 FEET WITH NO
SIGNIFICANT WEATHER AND/OR OBSTRUCTIONS TO VISIBILITY.

* THESE STATIONS ARE NOT UNDER NWS QUALITY CONTROL. THEY ALSO MAY NOT
  REPORT WEATHER SUCH AS PRECIPITATION OR FOG.

ILZ001-002-007-009-015-016-024-201000-
NORTHWEST ILLINOIS

CITY           SKY/WX    TMP DP  RH WIND       PRES   REMARKS
MOLINE         CLOUDY    63  57  81 S8        29.89F
STERLING*      CLOUDY    63  55  77 CALM      29.90S
SAVANNA*       CLOUDY    64  58  79 S5        29.88S
$$

ILZ003-004-008-010-011-017-018-201000-
NORTH CENTRAL ILLINOIS

CITY           SKY/WX    TMP DP  RH WIND       PRES   REMARKS
ROCKFORD       CLOUDY    60  54  80 S9        29.92R
FREEPORT*      CLOUDY    63  58  86 SW10      29.90R
ROCHELLE*      CLOUDY    58  54  86 S7        29.91S
DE KALB*       MOCLDY    55  52  90 S9        29.92S
PERU*          MOCLDY    60  55  84 SW9       29.93S
$$

ILZ005-006-012>014-019>023-201000-
NORTHEAST ILLINOIS

CITY           SKY/WX    TMP DP  RH WIND       PRES   REMARKS
CHICAGO-OHARE  CLOUDY    64  52  64 SW13G22   29.90F
CHICAGO-MIDWAY CLOUDY    63  53  70 SW12      29.92F
AURORA         MOCLDY    57  51  80 S7        29.93F
LANSING*       PTCLDY    58  52  79 S12       29.95F
JOLIET*        PTCLDY    58  51  77 S6        29.95F
WAUKEGAN       MOCLDY    64  53  67 SW17G24   29.88R
DUPAGE AIRPORT MOCLDY    59  52  77 S9        29.92F
KANKAKEE*      PTCLDY    55  52  89 S7        29.97F
WHEELING       MOCLDY    65  52  62 SW12      29.92S
MORRIS*        MOCLDY    56  55  94 S5        29.94S
ROMEOVILLE*    MOCLDY    60  52  76 SW10      29.94F
NORTHERLY ISL    N/A     64  51  62 S8          N/A
$$

LMZ740>746-201000-
SOUTHERN LAKE MICHIGAN

STATION/POSITION SKY/WX   TEMP    WIND        PRES    VSBY  WAVE
                          AIR SEA DIR/SP/G                  HT/PER
                          (F)     (DEG/KT/KT) (MB)    (MI)  (FT/S)
SOUTHERN BUOY              65 64  200/ 21/ 25 1011.6R         4/ 5
WAUKEGAN HARBOR            66     230/ 16/ 24   N/A
HARRISON CRIB              64     200/ 20/ 26   N/A
BURNHAM HARBOR             64     210/  8/ 15   N/A
CALUMET HARBOR             62     200/ 10/ 15 1012.2F
MICHIGAN CITY              63     170/ 17/ 22   N/A
MICHIGAN CITY 6N           64 65  200/ 17/ 23   N/A           2/ 3
ST. JOSEPH                 65 65  180/ 19/ 23   N/A           3/ 4
$$

ILZ025>027-034>036-040-047-049-050-058-095>099-201000-
WEST-CENTRAL ILLINOIS

CITY           SKY/WX    TMP DP  RH WIND       PRES   REMARKS
QUINCY         PTCLDY    63  59  87 S9        29.94F
GALESBURG*     MOCLDY    61  58  91 S8        29.94R
MACOMB*        MOCLDY    62  59  90 S6        29.96R
JACKSONVILLE*  PTCLDY    64  60  87 S7        29.97F
PITTSFIELD*    PTCLDY    63  59  89 S3        29.97F
$$

ILZ028>032-037-038-041>044-048-051>054-059>061-201000-
CENTRAL ILLINOIS

CITY           SKY/WX    TMP DP  RH WIND       PRES   REMARKS
PONTIAC        PTCLDY    59  55  88 S6        29.95F
DECATUR        CLEAR     61  54  77 S9        29.99F
PEORIA         MOCLDY    60  55  83 SW6       29.96S
LACON*         MOCLDY    62  55  79 S8        29.93S
LINCOLN*       CLEAR     58  55  88 S6        29.96S
SPRINGFIELD    PTCLDY    62  57  83 S7        29.97F
TAYLORVILLE    CLEAR     55  54  94 S7        29.99F
$$

ILZ033-039-045-046-055>057-062-063-201000-
EAST-CENTRAL ILLINOIS

CITY           SKY/WX    TMP DP  RH WIND       PRES   REMARKS
CHAMPAIGN      CLEAR     57  53  86 S7        30.00S
DANVILLE*      CLEAR     56  53  88 S6        29.98S
RANTOUL*       CLEAR     59  53  80 S6        30.00S
MATTOON        CLEAR     59  54  83 S6        30.01R
PARIS*         CLEAR     54  53  98 S5        30.02S
$$

ILZ079-100>102-201000-
SOUTHWEST ILLINOIS

CITY           SKY/WX    TMP DP  RH WIND       PRES   REMARKS
ALTON          CLEAR     58  56  94 CALM      30.00S
BELLEVILLE     CLEAR     55  55 100 CALM      30.00S FOG
CAHOKIA*       CLEAR     57  56  96 CALM      30.00R FOG
SPARTA*        CLEAR     56  54  93 CALM      30.02R
$$

ILZ064>066-069>071-074>076-080>082-084>086-088>090-092>094-201000-
SOUTH-CENTRAL ILLINOIS

CITY           SKY/WX    TMP DP  RH WIND       PRES   REMARKS
CARBONDALE     CLEAR     55  54  96 CALM      30.01S FOG
CAIRO*         CLEAR     60  58  94 CALM      30.02R
EFFINGHAM*     CLEAR     54  51  90 CALM      30.02R FOG
MARION         CLEAR     61  59  94 S5        30.02R
MT. VERNON     CLEAR     54  48  82 CALM      30.03R
CENTRALIA*     CLEAR     58  55  91 CALM      30.02R
SALEM*         CLEAR     57  55  93 CALM      30.03R
METROPOLIS*    CLEAR     58  58 100 CALM      30.01R FOG
$$

ILZ067-068-072-073-078-083-087-091-201000-
SOUTHEAST ILLINOIS

CITY           SKY/WX    TMP DP  RH WIND       PRES   REMARKS
LAWRENCEVILLE  CLEAR     54  53  97 CALM      30.03R FOG
FLORA*         CLEAR     53  52  97 CALM      30.03R
FAIRFIELD*     CLEAR    N/A N/A N/A CALM      30.02R FOG
HARRISBURG*    CLEAR     55  55 100 CALM      30.03R FOG
ROBINSON*      CLEAR     52  52  99 CALM      30.03S FOG
CARMI*         CLEAR     55  55  99 CALM      30.02R FOG
$$

ABBREVIATIONS USED IN REMARKS
   TC - TEMPERATURE IN CELSIUS
  WCI - WIND CHILL INDEX
   HX - HEAT INDEX
  VSB - VISIBILITY
$$




USA.gov is the U.S. government's official web portal to all federal, state and local government web resources and services.